Regional Weather Roundup
Issued by NWS Little Rock, AR

Home | Current Version | Previous Version | Graphics & Text | Print | Product List | Glossary On
Versions: 1 2 3 4 5 6 7 8 9 10 11 12 13 14 15 16 17 18 19 20 21 22 23 24 25 26 27 28 29 30 31 32
000
ASUS44 KLZK 222105
RWRLZK

WEATHER ROUNDUP FOR ARKANSAS
NATIONAL WEATHER SERVICE LITTLE ROCK AR
400 PM CDT SAT APR 22 2017

NOTE: "FAIR" INDICATES FEW OR NO CLOUDS BELOW 12,000 FEET WITH NO
SIGNIFICANT WEATHER AND/OR OBSTRUCTIONS TO VISIBILITY.

ARZ001-003-010-029-222200-
NORTHWEST ARKANSAS

CITY           SKY/WX    TMP DP  RH WIND       PRES   REMARKS
FAYETTEVILLE   CLOUDY    48  46  93 N7        30.03S
FORT SMITH     CLOUDY    55  43  63 N13       30.03S
HARRISON       LGT RAIN  48  47  96 N8        30.01F FOG
BENTONVILLE    CLOUDY    46  43  87 N13       30.05S
ROGERS         LGT RAIN  47  44  90 N10G18    30.05S
SILOAM SPGS    CLOUDY    46  41  81 N17       30.06R
HIGHFILL       CLOUDY    50  44  80 N17       30.04S
SPRINGDALE     CLOUDY    48  46  93 N10G18    30.05S
$$

ARZ004-005-016-222200-
NORTH CENTRAL ARKANSAS

CITY           SKY/WX    TMP DP  RH WIND       PRES   REMARKS
BATESVILLE     CLOUDY   N/A N/A N/A NW8       29.96F
FLIPPIN        CLOUDY    50  45  81 N6        29.98F
MTN HOME       LGT RAIN  49  46  90 VRB7      29.99S FOG
$$

ARZ040-041-222200-
WEST CENTRAL ARKANSAS

CITY           SKY/WX    TMP DP  RH WIND       PRES   REMARKS
MENA           CLOUDY    54  54 100 NW16      30.01R
MOUNT IDA      CLOUDY    59  48  67 NW13G22   29.94S
$$

ARZ009-017-025-026-028-222200-
NORTHEAST ARKANSAS

CITY           SKY/WX    TMP DP  RH WIND       PRES   REMARKS
JONESBORO      CLOUDY    52  48  86 N9        29.93F
NEWPORT        CLOUDY    51  48  89 N16       29.95F
WALNUT RIDGE   CLOUDY    52  45  76 N8        29.95S
BLYTHEVILLE    CLOUDY    54  51  90 NE18      29.91S
$$

ARZ022-023-033-042-044-222200-
CENTRAL ARKANSAS

CITY           SKY/WX    TMP DP  RH WIND       PRES   REMARKS
LITTLE ROCK    CLOUDY    56  53  90 NE10      29.94S
N LITTLE ROCK    N/A     55  52  90 N7        29.95R
JACKSONVILLE   CLOUDY    56  53  92 N7        29.93S
CONWAY           N/A     55  54  94 N10G20    29.94R FOG
SEARCY         CLOUDY    55  51  86 N12       29.97R
HOT SPRINGS    CLOUDY    64  54  69 NW7       29.93F
RUSSELLVILLE   CLOUDY    57  48  72 N10       29.96S
$$

ARZ036-222200-
EAST ARKANSAS

CITY           SKY/WX    TMP DP  RH WIND       PRES   REMARKS
WEST MEMPHIS   CLOUDY    53  53 100 N13       29.88F FOG
$$

ARZ050-053-066-070-073-222200-
SOUTHWEST ARKANSAS

CITY           SKY/WX    TMP DP  RH WIND       PRES   REMARKS
ARKADELPHIA    CLOUDY    65  55  70 N10       29.92F
CAMDEN         CLOUDY    64  54  68 W8        29.92F
TEXARKANA      CLOUDY    62  49  62 NW14G21   29.97R
EL DORADO      LGT RAIN  62  60  93 NW10      29.93S
DE QUEEN       CLOUDY    60  48  64 NW10      29.98R
$$

ARZ056-057-069-222200-
SOUTHEAST ARKANSAS

CITY           SKY/WX    TMP DP  RH WIND       PRES   REMARKS
PINE BLUFF     CLOUDY    58  54  86 N10       29.93S
STUTTGART      CLOUDY    55  43  62 N17G23    29.93F
MONTICELLO     CLOUDY    61  55  81 NW7G17    29.90S

$$






USA.gov is the U.S. government's official web portal to all federal, state and local government web resources and services.